Weather History for Baker, OR

Change the Weather History Date:

Monday, August 26, 2013

  Actual Average Record
Temperature  
Mean Temperature 64 °F 62 °F  
Max Temperature 88 °F 82 °F 99 °F (2001)
Min Temperature 39 °F 43 °F 29 °F (1992)
Degree Days  
Heating Degree Days 1 4  
Month to date heating degree days 11 58  
Since 1 June heating degree days 228 354  
Since 1 July heating degree days 32 128  
Cooling Degree Days 0 1  
Month to date cooling degree days 81 61  
Year to date cooling degree days 214 154  
Since 1 June cooling degree days 210 152  
Growing Degree Days 12 (Base 50)    
Moisture  
Dew Point 41 °F    
Average Humidity 57    
Maximum Humidity 100    
Minimum Humidity 14    
Precipitation  
Precipitation 0.00 in 0.02 in 0.44 in (1953)
Month to date precipitation 0.47 0.58  
Year to date precipitation 6.15 6.94  
Sea Level Pressure  
Sea Level Pressure 29.93 in    
Wind  
Wind Speed 8 mph (South)    
Max Wind Speed 28 mph    
Max Gust Speed 41 mph    
Visibility 10 miles    
Events      
T = Trace of Precipitation, MM = Missing Value Source: NWS Daily Summary

Daily Weather History Graph

Daily Weather History Graph

Search for Another Location

Airport:

Trip Planner

Search our weather history database for the weather conditions in past years. The results will help you decide how hot, cold, wet, or windy it might be!

Date:

Astronomy

Aug. 26, 2013 Rise Set
Actual Time 6:06 AM PDT 7:38 PM PDT
Civil Twilight 5:36 AM PDT 8:08 PM PDT
Nautical Twilight 4:58 AM PDT 8:45 PM PDT
Astronomical Twilight 4:18 AM PDT 9:25 PM PDT
Moon 10:33 PM PDT (8/26) 12:30 PM PDT (8/26)
Length of Visible Light 14h 32m
Length of Day
13h 31m
Waning Gibbous, 65% of the Moon is Illuminated
Aug 26
Waning Gibbous
Aug 28
Last Quarter
Sep 5
New
Sep 12
First Quarter
Sep 19
Full

Hourly Weather History & Observations

Time (PDT) Temp. Windchill Dew Point Humidity Pressure Visibility Wind Dir Wind Speed Gust Speed Precip Events Conditions
12:53 AM 53.1 °F - 46.9 °F 80% 29.92 in 10.0 mi SE 4.6 mph - N/A   Clear
1:53 AM 48.0 °F - 45.0 °F 89% 29.93 in 10.0 mi WSW 5.8 mph - N/A   Clear
2:53 AM 46.0 °F 44.8 °F 44.1 °F 93% 29.94 in 10.0 mi NNE 3.5 mph - N/A   Clear
3:53 AM 45.0 °F 43.5 °F 43.0 °F 93% 29.97 in 10.0 mi SW 3.5 mph - N/A   Clear
4:53 AM 41.0 °F 38.0 °F 39.0 °F 93% 29.98 in 10.0 mi East 4.6 mph - N/A   Clear
5:53 AM 39.9 °F - 39.9 °F 100% 29.99 in 10.0 mi Calm Calm - N/A   Clear
6:53 AM 43.0 °F - 42.1 °F 97% 30.01 in 10.0 mi Calm Calm - N/A   Clear
7:53 AM 52.0 °F - 46.9 °F 83% 30.01 in 10.0 mi North 3.5 mph - N/A   Clear
8:53 AM 61.0 °F - 46.0 °F 58% 30.00 in 10.0 mi Calm Calm - N/A   Clear
9:53 AM 69.1 °F - 48.9 °F 49% 29.98 in 10.0 mi Calm Calm - N/A   Clear
10:53 AM 77.0 °F - 44.1 °F 31% 29.94 in 10.0 mi East 4.6 mph - N/A   Clear
11:29 AM 80.6 °F - 37.4 °F 21% 30.00 in 10.0 mi South 15.0 mph 27.6 mph N/A   Clear
11:53 AM 82.0 °F - 37.0 °F 20% 29.92 in 10.0 mi SE 17.3 mph 24.2 mph N/A   Clear
12:53 PM 84.9 °F - 32.0 °F 15% 29.89 in 10.0 mi South 16.1 mph 23.0 mph N/A   Clear
1:53 PM 84.0 °F - 30.0 °F 14% 29.90 in 10.0 mi South 21.9 mph 28.8 mph N/A   Clear
2:53 PM 84.9 °F - 33.1 °F 16% 29.88 in 10.0 mi South 16.1 mph 34.5 mph N/A   Partly Cloudy
3:53 PM 82.9 °F - 33.1 °F 17% 29.88 in 10.0 mi SSW 11.5 mph 20.7 mph N/A   Partly Cloudy
4:53 PM 84.9 °F - 36.0 °F 17% 29.88 in 10.0 mi SE 11.5 mph 20.7 mph N/A   Scattered Clouds
5:53 PM 82.9 °F - 36.0 °F 19% 29.86 in 10.0 mi SE 9.2 mph - N/A   Scattered Clouds
6:53 PM 79.0 °F - 39.0 °F 24% 29.87 in 10.0 mi East 9.2 mph - N/A   Partly Cloudy
7:53 PM 73.9 °F - 42.1 °F 32% 29.88 in 10.0 mi NW 10.4 mph - N/A   Scattered Clouds
8:32 PM 69.8 °F - 46.4 °F 43% 29.95 in 10.0 mi NNW 15.0 mph - N/A   Partly Cloudy
8:53 PM 66.0 °F - 48.0 °F 52% 29.92 in 10.0 mi WSW 13.8 mph - N/A   Clear
9:53 PM 64.0 °F - 46.9 °F 54% 29.92 in 10.0 mi WSW 6.9 mph 18.4 mph N/A   Clear
10:53 PM 61.0 °F - 48.0 °F 62% 29.93 in 10.0 mi WNW 8.1 mph - N/A   Clear
11:53 PM 55.9 °F - 46.9 °F 72% 29.94 in 10.0 mi WSW 8.1 mph - N/A   Clear